SCP
0 0 0 0 0 0 0 0 0 0 0 0 0 0 1 1 1 1 0 0 0 0 0 0 0 1 1 1 1 1 1 1 1 0 0 0 0 0 0 0 0 0 0 0
0 0 0 0 0 0 0 0 0 0 0 0 0 0 1 1 1 1 1 0 0 0 0 0 1 1 1 1 1 1 1 1 1 0 0 0 0 0 0 0 0 0 0 0
0 0 0 0 0 0 0 0 0 0 0 0 0 0 0 0 1 1 1 1 1 1 0 0 1 1 1 1 1 1 2 2 1 1 0 0 0 0 0 0 0 0 0 0
1 0 0 0 0 0 0 0 0 0 0 0 0 0 0 0 1 1 1 1 1 1 1 0 1 1 1 1 1 2 2 2 1 1 0 0 0 0 0 0 0 0 0 0
1 1 0 0 0 0 0 0 0 0 0 0 0 0 0 0 0 1 1 1 0 1 1 1 1 1 1 1 2 2 3 3 2 1 0 0 0 0 0 0 0 0 0 0
0 0 0 0 0 0 0 0 0 0 0 0 0 0 0 0 0 0 1 0 0 1 1 1 1 1 1 2 3 3 3 3 2 1 0 0 0 0 0 0 0 0 0 0
0 0 0 0 0 0 0 0 0 0 0 0 0 0 0 0 0 0 0 0 0 1 1 1 1 1 2 3 4 4 3 3 2 1 1 1 1 0 0 0 0 0 0 0
0 0 0 0 0 0 0 0 0 0 0 0 0 0 0 0 0 0 0 0 0 0 1 1 1 2 2 4 5 4 3 3 2 2 1 1 1 1 1 1 1 1 0 0
0 0 0 0 0 0 0 0 0 0 0 0 0 0 0 0 0 0 0 0 0 1 1 1 2 2 3 4 5 4 3 3 2 2 2 1 1 1 1 1 1 1 1 1
0 0 0 0 0 0 0 0 0 0 0 0 0 0 0 0 0 0 0 0 0 1 1 1 2 2 3 4 4 3 2 2 2 2 1 1 1 1 1 1 1 1 1 1
0 0 0 0 0 0 0 0 0 0 0 0 0 0 0 0 0 0 0 0 1 1 1 1 1 1 2 3 3 2 2 2 2 1 1 1 1 1 1 1 1 1 1 2
0 0 0 0 0 0 0 0 0 0 0 0 0 0 0 0 0 0 0 0 1 1 1 1 1 1 1 1 2 2 2 2 2 2 2 1 1 1 1 1 1 1 1 2
0 0 0 0 0 0 0 0 0 0 0 0 0 0 0 0 0 0 0 1 1 2 2 1 1 1 1 1 1 1 1 2 2 2 2 2 1 1 1 0 1 1 1 1
0 0 0 0 0 0 0 0 0 0 0 0 0 0 0 0 0 0 0 1 1 2 2 2 1 1 1 1 1 1 1 1 2 2 2 1 1 1 1 1 1 1 1 1
0 0 0 0 0 0 0 0 0 0 0 0 0 0 0 0 0 0 0 1 1 2 2 2 2 1 1 1 1 1 1 1 1 1 1 1 1 1 1 1 1 1 1 1
0 0 0 0 0 0 0 0 0 0 0 0 0 0 0 0 0 0 0 1 1 1 2 2 2 2 1 1 1 1 1 1 1 1 1 1 1 1 1 1 1 1 1 1
0 0 0 0 0 0 0 0 0 0 0 0 0 0 0 0 0 0 0 1 1 1 2 2 1 1 1 1 1 1 1 1 1 1 1 1 1 1 1 1 1 1 1 1
0 0 0 0 0 0 0 0 0 0 0 0 0 0 0 0 0 0 0 0 1 1 1 1 1 1 1 1 1 1 1 1 1 1 1 1 1 1 1 1 1 1 0 0
0 0 0 0 0 0 0 0 0 0 0 0 0 0 0 0 0 0 0 0 0 1 1 1 1 1 1 1 1 1 1 1 1 1 1 1 1 1 1 1 1 1 0 0
0 0 0 0 0 0 0 0 0 0 0 0 0 0 0 0 0 0 0 0 0 1 1 1 1 1 1 1 1 0 0 0 0 1 1 1 1 1 1 1 1 1 0 0
0 0 0 0 0 0 0 0 0 0 0 0 0 0 0 0 0 0 0 0 0 1 1 1 1 1 1 1 1 0 0 0 0 1 1 1 1 1 1 1 1 1 1 0
0 0 0 0 0 0 0 0 0 0 0 0 0 0 0 0 0 0 0 0 0 1 1 1 1 1 1 1 1 0 0 0 1 1 1 1 1 1 1 1 1 1 1 0
0 0 0 0 0 0 0 0 0 0 0 0 0 0 0 0 0 0 0 0 1 1 1 1 1 1 1 1 1 0 0 1 1 1 1 1 1 1 1 1 1 1 1 1
0 0 0 0 0 0 0 0 0 0 0 0 0 0 0 0 0 0 0 0 1 1 2 2 2 2 1 1 1 0 0 1 1 1 1 1 1 1 1 1 1 1 1 1
0 0 0 0 0 0 0 0 0 0 0 0 1 0 0 0 0 0 0 1 1 2 2 2 2 2 1 1 1 1 0 1 1 1 1 1 1 1 1 1 1 1 1 0
0 0 0 0 0 0 0 0 0 0 0 1 1 0 0 0 0 0 1 1 2 2 3 3 2 1 1 1 1 0 0 1 1 1 1 1 1 1 1 1 1 1 0 0
Wind_Speed
6 4 3 4 5 5 3 3 1 0 2 3 4 5 6 7 7 7 7 8 9 8 8 8 7 6 6 5 6 6 6 5 4 2 2 2 2 1 2 2 2 2 2 3
3 3 4 4 3 4 3 2 0 1 1 2 2 4 6 8 9 8 8 8 8 8 8 9 8 7 6 5 5 6 6 6 5 3 2 2 2 1 2 1 2 2 2 2
3 2 3 3 4 3 3 2 1 2 3 3 3 4 7 8 8 7 7 6 8 10 10 10 9 8 7 6 5 6 6 6 6 5 2 2 2 1 1 1 1 1 2 2
2 4 3 3 3 2 2 1 2 3 4 3 5 2 4 7 8 9 8 7 6 7 8 9 9 9 8 7 6 6 6 6 6 6 3 3 3 2 2 2 2 1 2 2
2 2 2 3 3 3 2 2 3 4 4 5 7 4 3 6 8 9 9 8 7 7 7 8 8 8 8 7 5 5 5 5 6 5 4 3 2 2 2 2 3 2 2 2
3 3 3 2 2 2 2 4 5 6 4 5 6 4 2 4 6 8 9 8 7 7 7 8 7 6 6 6 5 4 5 5 5 5 5 4 3 2 2 2 2 2 2 1
3 4 4 3 3 4 4 3 3 2 3 4 3 2 1 3 4 5 7 7 8 7 7 8 8 7 6 7 6 5 6 5 5 5 5 5 4 3 3 3 3 2 2 2
4 4 5 5 4 4 4 3 2 3 2 2 2 2 2 4 4 4 5 5 7 7 7 8 8 7 7 7 7 6 6 6 5 5 5 5 5 3 2 3 3 3 2 2
3 2 3 4 4 4 4 4 4 4 6 4 2 2 3 4 4 5 6 6 6 8 7 7 8 7 7 7 7 6 6 6 6 6 5 4 4 4 3 3 2 2 2 2
4 2 4 3 4 6 7 6 4 2 3 3 2 1 1 3 4 4 5 6 6 7 7 7 7 7 7 6 6 6 6 6 6 6 5 4 4 4 3 2 2 3 2 2
5 4 4 5 5 5 6 6 5 3 3 1 2 2 1 2 3 4 5 6 7 7 7 7 6 5 6 6 6 5 5 5 5 5 4 4 4 4 4 3 2 2 2 3
3 4 5 6 5 5 5 5 4 3 4 2 1 2 1 2 2 3 4 6 6 6 6 7 6 6 5 6 6 5 5 5 5 4 4 4 4 4 3 3 3 3 3 3
5 4 4 4 4 4 5 5 5 5 4 3 2 2 1 3 3 2 3 5 5 6 6 6 6 5 5 6 5 5 4 4 4 4 4 4 4 3 3 3 3 3 3 3
4 5 4 4 3 3 4 5 6 5 4 3 3 3 2 2 3 3 4 4 5 5 6 6 6 5 5 6 6 5 4 4 5 4 4 3 3 4 3 3 3 2 2 2
6 7 6 7 7 6 6 6 7 6 5 5 4 4 2 2 3 3 4 4 5 5 5 6 6 5 5 5 5 5 5 5 5 5 4 3 3 3 3 3 2 2 1 2
7 7 7 7 7 8 8 8 9 8 6 6 5 4 2 1 2 3 4 4 4 5 5 5 6 5 6 6 5 5 5 5 5 5 4 3 3 3 3 3 3 2 2 2
7 7 7 7 7 9 9 8 9 7 6 5 5 2 1 1 0 2 3 3 4 5 4 5 5 5 5 6 6 5 6 6 6 6 5 4 3 3 3 3 3 3 2 2
9 8 5 7 7 9 4 3 5 4 4 3 1 1 1 1 1 2 3 3 3 4 4 4 4 4 4 5 5 5 5 6 5 5 5 4 4 3 3 3 3 2 2 2
9 8 6 6 7 7 5 5 4 3 3 2 2 2 1 0 1 2 3 3 2 3 3 3 3 3 4 4 5 6 5 5 5 5 5 5 5 4 4 3 3 2 2 2
10 9 7 7 8 7 2 2 3 4 4 2 2 1 1 2 1 1 3 3 3 3 3 2 2 2 3 3 5 6 6 5 5 5 4 4 5 5 4 4 3 2 2 2
9 9 10 10 9 5 1 1 2 4 1 2 2 1 1 1 1 3 4 4 3 3 3 3 2 2 2 3 5 5 5 4 4 4 4 4 4 5 4 3 3 2 2 2
7 6 8 8 9 5 1 2 2 1 2 2 2 2 2 3 3 4 4 3 3 3 3 3 3 2 2 3 4 4 4 4 4 5 4 4 4 4 4 4 3 2 2 2
6 5 3 4 3 1 1 1 3 3 2 2 2 1 2 3 3 3 3 2 3 3 3 2 2 2 2 3 3 4 3 4 5 5 4 4 4 3 4 4 3 2 2 2
5 5 6 6 3 3 3 2 1 2 2 3 2 1 2 2 2 2 2 2 2 3 3 3 3 2 2 2 3 3 3 4 5 5 4 4 4 4 3 2 3 2 2 2
5 5 7 8 5 3 2 1 1 2 2 2 2 1 1 1 1 1 1 1 1 2 2 2 2 2 2 2 3 3 3 3 4 4 4 3 3 4 3 2 2 2 1 2
8 8 8 6 5 4 2 2 1 0 0 1 1 1 0 0 0 0 1 1 2 2 2 2 2 2 2 2 3 3 2 2 3 3 3 3 3 3 3 3 2 3 2 2
Wind_Direction
210 219 236 242 244 267 277 279 281 277 187 201 198 190 188 188 195 189 188 190 188 185 176 163 157 154 153 157 150 143 149 147 127 113 105 105 101 82 74 71 57 40 43 52
211 235 261 253 254 269 241 235 284 338 269 233 210 220 201 195 201 199 198 196 188 177 169 161 165 164 169 168 160 158 159 148 138 136 143 144 136 122 99 73 55 40 56 51
235 267 271 250 241 250 255 247 245 279 297 272 254 245 210 194 198 199 210 209 192 181 176 168 170 168 171 170 172 165 156 145 142 143 131 108 87 81 100 108 90 39 71 73
249 267 273 277 273 277 283 288 233 240 260 261 234 249 202 184 188 192 199 205 197 183 173 168 171 171 174 173 171 165 161 154 147 140 148 150 160 179 168 154 156 154 118 93
232 248 257 265 277 296 292 296 272 260 263 269 259 243 211 176 189 189 187 192 189 182 175 168 168 169 172 168 166 165 159 149 145 149 151 168 189 183 144 138 147 150 136 129
246 262 287 281 279 257 246 275 267 252 257 259 246 229 201 184 194 181 177 180 183 177 169 166 162 161 165 154 155 157 153 151 152 156 164 188 192 171 149 153 153 154 140 157
238 226 226 218 229 229 243 288 300 260 219 245 223 209 191 160 165 172 174 176 177 174 170 165 161 163 156 151 157 159 155 157 163 173 181 182 183 180 174 169 164 164 156 167
231 224 212 217 244 260 249 242 256 292 278 292 265 200 126 121 137 153 154 164 167 166 167 163 160 160 157 157 160 166 164 167 171 180 186 183 175 175 180 177 166 177 173 173
262 237 225 223 237 260 274 252 239 263 277 277 257 132 116 118 127 144 152 161 166 161 161 157 157 158 158 160 164 171 166 167 175 186 186 184 173 175 175 176 175 169 169 158
278 258 247 230 229 236 259 280 276 265 287 288 281 239 186 163 152 157 159 161 160 152 153 151 156 159 159 161 165 170 167 172 179 184 185 179 171 175 168 171 179 158 158 138
275 262 238 233 228 241 239 250 267 278 252 250 293 333 66 117 131 149 158 160 157 153 150 150 154 153 153 155 160 169 168 171 176 182 185 169 164 170 165 166 168 156 156 152
288 276 247 238 234 240 252 261 263 267 277 255 221 252 143 107 106 128 146 144 143 144 146 149 152 155 156 159 166 173 174 171 173 174 165 160 160 160 160 168 171 164 162 157
335 287 268 245 225 220 241 252 258 257 266 271 259 217 158 113 103 110 123 126 131 140 142 147 151 159 160 160 166 172 168 160 159 157 155 157 157 159 162 168 171 172 172 164
302 269 271 273 287 285 267 272 274 267 261 266 250 233 197 135 123 128 131 136 136 144 147 147 152 160 163 163 166 164 158 150 146 144 150 153 160 160 160 162 155 163 167 154
252 266 262 267 272 276 278 278 274 268 265 260 261 261 259 162 153 156 147 143 144 149 152 152 155 159 159 158 160 159 156 149 148 145 147 152 156 147 138 137 136 137 125 123
256 266 271 264 267 272 265 265 267 263 253 249 253 258 270 117 140 150 154 151 153 153 156 159 162 162 161 163 167 164 159 152 148 144 145 144 142 128 128 130 128 122 109 101
258 259 271 271 267 274 262 256 254 251 249 247 251 248 225 263 185 129 124 131 146 149 153 160 168 170 169 171 172 161 159 152 152 148 146 143 138 128 130 131 129 133 141 139
263 268 264 269 265 260 260 270 265 248 244 248 244 274 263 236 121 96 100 109 130 138 152 164 172 171 173 173 164 152 148 145 144 146 149 147 143 135 135 135 140 147 144 143
249 257 265 268 268 262 252 259 258 255 245 239 225 228 240 154 116 108 98 108 126 130 140 154 173 173 175 168 158 149 145 145 147 148 152 149 148 146 146 148 155 150 142 138
232 240 247 257 266 267 232 260 270 252 239 203 212 189 184 198 206 117 83 80 95 107 125 142 168 164 157 158 152 149 153 154 152 150 153 152 152 151 155 159 156 144 144 155
223 230 237 248 254 257 256 336 276 251 245 143 169 141 114 106 75 107 101 89 92 102 117 118 133 148 151 150 147 154 155 157 152 147 151 150 152 155 153 152 147 143 152 160
246 243 242 246 249 241 213 246 264 355 37 27 66 92 98 83 72 84 95 107 111 107 109 121 125 127 126 136 145 147 149 147 140 142 146 149 151 156 149 146 153 154 151 161
245 250 265 258 255 286 293 318 340 350 352 21 41 53 91 90 97 94 88 103 126 126 123 113 114 112 116 129 137 147 147 137 134 135 142 146 146 141 143 148 152 153 160 170
266 260 258 261 245 244 266 298 328 1 21 26 33 20 67 109 111 104 95 92 116 120 121 123 126 121 119 124 127 130 127 137 143 147 148 146 139 133 133 132 141 148 167 177
283 289 270 263 252 252 249 269 311 27 35 23 19 17 36 81 104 100 100 90 116 115 119 131 138 137 136 120 113 110 125 141 146 146 142 140 134 135 130 111 96 133 148 181
260 262 264 268 273 266 254 219 202 240 270 311 331 323 300 285 194 270 141 159 143 139 147 146 136 141 148 137 128 121 129 140 148 147 142 139 134 133 130 123 91 55 73 94